Overview Statistics Trail Chart Weather Telemetry Raw packets
 

This is the latest recevied weather packets stored in our database for station/object K5FEP. If no packets are shown the sender has not sent any weather packets the latest 10 day(s).

<< 54 55 56 57 58 59 60 >>
Time Temp. Humidity Pressure Rain* Wind** Luminosity Snow
1788271981 30° C 66% 1018.7 hPa 0 mm - 570 W/m² -
1788271679 29.44° C 68% 1018.8 hPa 0 mm - 551 W/m² -
1788271378 29.44° C 69% 1018.7 hPa 0 mm - 532 W/m² -
1788271073 28.89° C 70% 1018.6 hPa 0 mm - 517 W/m² -
1788270773 28.33° C 71% 1018.7 hPa 0 mm - 498 W/m² -
1788270469 28.33° C 73% 1018.6 hPa 0 mm - 473 W/m² -
1788270169 27.78° C 75% 1018.8 hPa 0 mm - 460 W/m² -
1788269869 27.22° C 76% 1018.7 hPa 0 mm - 444 W/m² -
1788269568 27.78° C 75% 1018.8 hPa 0 mm - 423 W/m² -
1788269267 27.22° C 75% 1018.5 hPa 0 mm - 404 W/m² -
1788268962 26.67° C 78% 1018.8 hPa 0 mm - 385 W/m² -
1788268657 26.67° C 78% 1018.9 hPa 0 mm - 365 W/m² -
1788268356 26.11° C 80% 1018.9 hPa 0 mm - 345 W/m² -
1788268051 25.56° C 82% 1018.8 hPa 0 mm - 323 W/m² -
1788267750 25.56° C 81% 1018.7 hPa 0 mm - 305 W/m² -
1788267448 25° C 82% 1018.6 hPa 0 mm - 279 W/m² -
1788267144 25° C 84% 1018.8 hPa 0 mm - 204 W/m² -
1788266839 24.44° C 87% 1019 hPa 0 mm - 146 W/m² -
1788266539 24.44° C 87% 1018.9 hPa 0 mm - 139 W/m² -
1788266238 23.89° C 88% 1019 hPa 0 mm - 121 W/m² -
1788265933 23.89° C 89% 1018.7 hPa 0 mm - 74 W/m² -
1788265631 23.33° C 90% 1018.7 hPa 0 mm - 65 W/m² -
1788265327 23.33° C 90% 1018.6 hPa 0 mm - 64 W/m² -
1788265021 22.78° C 93% 1018.7 hPa 0 mm - 66 W/m² -
1788264717 22.78° C 95% 1018.3 hPa 0 mm - 58 W/m² -

* Rain latest hour (hover to see other rain measurements)
** Current wind speed in m/s (hover to see current wind gust speed)